Current weather by "City, St" or "zip code"  
 

Current Conditions: Huntington, Tri-State Airport, WV

Fog/Mist


28.0 F

Last Updated on Jan 31 2023, 8:51 pm EST
Humidity: 92%
Wind Speed: N 6.9 mph
Barometer 30.26 in
Dewpoint: 26.1 F
Visibility: 3.00 mi
Precip: --
Heat Index: NA
Wind Chill: 21 F
Current conditions at:

Huntington, Tri-State Airport, WV (KHTS)

Lat: 38.365 Lon: 82.555

Local Radar Image active severe weather and emergency alerts image image weather storm and storm spotter reports image weather observation monitoring service image
Local
Radar
Active
Alerts
Storm Reports Obs
Monitoring

Sign-up For Email & Text Message Weather Alert Notification Services



Advertise Here

Observation History for Huntington, Tri-State Airport, WV


Time Wind
(mph)
Vis
(mi)
Weather Precip (in) Temperature (F) Relative
Humidity
Wind
Chill
(F)
Heat
Index
(F)
Pressure
Air Dwpt altimeter
(in)
sea level
(mb)
Rmks
8:51 pm EST N 6.9 3.00 Fog/Mist -- 28.0 26.1 92% 21 NA 30.26 1025.7
7:51 pm EST N 9.2 5.00 Fog/Mist -- 29.0 26.1 89% 20 NA 30.24 1024.9
6:51 pm EST N 3.5 9.00 Overcast -- 29.0 26.1 89% NA NA 30.24 1024.9
5:51 pm EST N 8.1 2.50 Fog/Mist -- 29.0 27.0 92% 21 NA 30.22 1024.0
3:51 pm EST N 6.9 8.00 Overcast -- 30.0 27.0 88% 23 NA 30.20 1023.3
11:51 am EST N 8.1 5.00 Fog/Mist -- 29.0 26.1 89% 21 NA 30.31 1027.0
10:51 am EST NE 6.9 3.00 Fog/Mist Trace 29.0 26.1 89% 22 NA 30.32 1027.2
9:51 am EST N 5.8 2.00 Light Snow Fog/Mist 00.01 29.0 26.1 89% 23 NA 30.32 1027.3
4:51 am EST N 6.9 2.50 Freezing Rain Fog/Mist 00.06 31.0 28.0 89% 24 NA 30.29 1026.0
3:51 am EST N 6.9 5.00 Light Freezing Rain Fog/Mist 00.04 31.0 28.0 89% 24 NA 30.27 1025.4
2:51 am EST N 8.1 5.00 Light Freezing Rain Fog/Mist 00.04 31.0 28.0 89% 24 NA 30.26 1025.0
1:51 am EST N 6.9 6.00 Light Freezing Rain Fog/Mist 00.03 32.0 28.9 88% 26 NA 30.24 1024.2
12:51 am EST N 9.2 4.00 Light Freezing Rain Fog/Mist -- 32.0 28.9 88% 24 NA 30.24 1024.4
11:51 pm EST NW 8.1 8.00 Unknown Precip Trace 33.0 30.9 92% 26 NA 30.23 1024.0
10:51 pm EST N 6.9 8.00 Overcast 00.01 34.0 32.0 92% 28 NA 30.23 1023.9
8:51 pm EST NW 5.8 6.00 Fog/Mist -- 36.0 34.0 93% 31 NA 30.22 1023.7

Regional Weather Observation


Greater Portsmouth Regional Airport, OH (KPMH)

Overcast
28.0 F

Huntington, Tri-State Airport, WV (KHTS)

Fog/Mist
28.0 F

James A Rhodes Airport, OH (KI43)

Fair
86.0 F

Point Pleasant, Mason County Airport, WV (K3I2)

Fair
19.0 F

Clyde A. Thomas Regional Airport, KY (KSYM)

Overcast
28.0 F

Flemingsburg Fleming-Mason Airport, KY (KFGX)

Overcast
25.0 F

Advertise Here


Advertise Here